When you browse on this site, cookies collect data to enhance your experience and personalize the content and advertising you see.
Visit our Privacy Policy to learn more. By continuing to use the site, you agree to this use of cookies and data.
  • In Hungary
  • List of Countries
  • For 7 days
  • Water Temperature
  • Weather Map
  • News
  • Weather Widgets
  • user-avatar
    Login

    Hourly Weather Biernacice

    Today, 12 November, Tuesday

    Time Temperature Precipitation Wind Pressure Humidity
    00:00 +4°C° 0 mm 3 mps 733 mmHg 83%
    01:00 +4°C° 0 mm 3 mps 733 mmHg 83%
    02:00 +5°C° 0 mm 3 mps 733 mmHg 83%
    03:00 +5°C° 0 mm 3 mps 733 mmHg 83%
    04:00 +6°C° 0 mm 2 mps 733 mmHg 83%
    05:00 +7°C° 0 mm 2 mps 733 mmHg 84%
    06:00 +7°C° 0 mm 2 mps 733 mmHg 84%
    07:00 +7°C° 0 mm 2 mps 734 mmHg 84%
    08:00 +7°C° 0 mm 2 mps 734 mmHg 82%
    09:00 +7°C° 0 mm 2 mps 734 mmHg 80%
    10:00 +7°C° 0 mm 2 mps 733 mmHg 78%
    11:00 +7°C° 0 mm 2 mps 733 mmHg 77%
    12:00 +8°C° 0 mm 1 mps 733 mmHg 76%
    13:00 +8°C° 0 mm 1 mps 733 mmHg 75%
    14:00 +7°C° 0.6 mm 1 mps 733 mmHg 80%
    15:00 +7°C° 0.6 mm 1 mps 732 mmHg 86%
    16:00 +6°C° 0.6 mm 1 mps 732 mmHg 92%
    17:00 +6°C° 1.5 mm 1 mps 731 mmHg 93%
    18:00 +6°C° 1.5 mm 1 mps 731 mmHg 95%
    19:00 +6°C° 1.5 mm 1 mps 731 mmHg 97%
    20:00 +6°C° 0.9 mm 1 mps 731 mmHg 97%
    21:00 +6°C° 0.9 mm 1 mps 730 mmHg 97%
    22:00 +6°C° 0.9 mm 1 mps 730 mmHg 98%
    23:00 +6°C° 1.2 mm 1 mps 730 mmHg 98%

    Tomorrow, 13 November, Wednesday

    Time Temperature Precipitation Wind Pressure Humidity
    00:00 +6°C° 1.2 mm 1 mps 730 mmHg 98%
    01:00 +6°C° 1.2 mm 1 mps 730 mmHg 98%
    02:00 +6°C° 0.1 mm 1 mps 729 mmHg 98%
    03:00 +7°C° 0.1 mm 1 mps 729 mmHg 98%
    04:00 +7°C° 0.1 mm 1 mps 729 mmHg 97%
    05:00 +7°C° 0 mm 1 mps 728 mmHg 97%
    06:00 +7°C° 0 mm 1 mps 728 mmHg 97%
    07:00 +7°C° 0 mm 1 mps 728 mmHg 97%
    08:00 +7°C° 0.3 mm 1 mps 728 mmHg 97%
    09:00 +7°C° 0.3 mm 1 mps 728 mmHg 96%
    10:00 +6°C° 0.3 mm 2 mps 728 mmHg 96%
    11:00 +6°C° 0.8 mm 2 mps 728 mmHg 96%
    12:00 +6°C° 0.8 mm 2 mps 727 mmHg 96%
    13:00 +6°C° 0.8 mm 2 mps 727 mmHg 96%
    14:00 +5°C° 0.6 mm 2 mps 727 mmHg 96%
    15:00 +5°C° 0.6 mm 2 mps 727 mmHg 96%
    16:00 +5°C° 0.6 mm 2 mps 727 mmHg 96%
    17:00 +4°C° 2 mm 3 mps 727 mmHg 97%
    18:00 +4°C° 2 mm 3 mps 727 mmHg 97%
    19:00 +4°C° 2 mm 4 mps 727 mmHg 97%
    20:00 +4°C° 5.1 mm 4 mps 727 mmHg 97%
    21:00 +2°C° 5.1 mm 5 mps 727 mmHg 97%
    22:00 +2°C° 5.1 mm 5 mps 727 mmHg 97%
    23:00 +2°C° 1.2 mm 5 mps 727 mmHg 96%

    Day after tomorrow, 14 November, Thursday

    Time Temperature Precipitation Wind Pressure Humidity
    00:00 +3°C° 1.2 mm 4 mps 728 mmHg 95%
    01:00 +1°C° 1.2 mm 4 mps 729 mmHg 94%
    02:00 +2°C° 0 mm 3 mps 729 mmHg 94%
    03:00 +3°C° 0 mm 2 mps 730 mmHg 94%
    04:00 +3°C° 0 mm 2 mps 730 mmHg 94%
    05:00 +4°C° 0 mm 1 mps 731 mmHg 93%
    06:00 +4°C° 0 mm 1 mps 731 mmHg 93%
    07:00 +4°C° 0 mm 1 mps 732 mmHg 92%
    08:00 +5°C° 0 mm 1 mps 732 mmHg 90%
    09:00 +5°C° 0 mm 1 mps 732 mmHg 88%
    10:00 +6°C° 0 mm 1 mps 732 mmHg 86%
    11:00 +6°C° 0 mm 1 mps 732 mmHg 85%
    12:00 +6°C° 0 mm 2 mps 732 mmHg 83%
    13:00 +7°C° 0 mm 2 mps 732 mmHg 82%
    14:00 +6°C° 0 mm 2 mps 732 mmHg 85%
    15:00 +6°C° 0 mm 2 mps 732 mmHg 87%
    16:00 +6°C° 0 mm 2 mps 732 mmHg 89%
    17:00 +6°C° 0 mm 2 mps 732 mmHg 91%
    18:00 +7°C° 0 mm 1 mps 732 mmHg 92%
    19:00 +7°C° 0 mm 1 mps 732 mmHg 93%
    20:00 +6°C° 0 mm 2 mps 732 mmHg 93%
    21:00 +6°C° 0 mm 2 mps 731 mmHg 93%
    22:00 +7°C° 0 mm 2 mps 731 mmHg 93%
    23:00 +7°C° 0 mm 2 mps 731 mmHg 93%

    15 November, Friday

    Time Temperature Precipitation Wind Pressure Humidity
    00:00 +7°C° 0 mm 2 mps 731 mmHg 93%
    01:00 +7°C° 0 mm 2 mps 731 mmHg 93%
    02:00 +7°C° 0 mm 3 mps 730 mmHg 93%
    03:00 +7°C° 0 mm 3 mps 730 mmHg 92%
    04:00 +7°C° 0 mm 3 mps 730 mmHg 92%
    05:00 +7°C° 0 mm 4 mps 730 mmHg 91%
    06:00 +7°C° 0 mm 4 mps 730 mmHg 90%
    07:00 +7°C° 0 mm 5 mps 730 mmHg 88%
    08:00 +9°C° 0 mm 5 mps 730 mmHg 84%
    09:00 +10°C° 0 mm 6 mps 730 mmHg 80%
    10:00 +13°C° 0 mm 6 mps 730 mmHg 75%
    11:00 +14°C° 0 mm 6 mps 730 mmHg 72%
    12:00 +14°C° 0 mm 6 mps 730 mmHg 68%
    13:00 +15°C° 0 mm 6 mps 730 mmHg 64%
    14:00 +14°C° 0 mm 6 mps 730 mmHg 67%
    15:00 +13°C° 0 mm 5 mps 730 mmHg 71%
    16:00 +12°C° 0 mm 5 mps 730 mmHg 74%
    17:00 +10°C° 0 mm 5 mps 730 mmHg 75%
    18:00 +11°C° 0 mm 4 mps 731 mmHg 77%
    19:00 +11°C° 0 mm 4 mps 731 mmHg 78%
    20:00 +10°C° 0 mm 4 mps 731 mmHg 79%
    21:00 +10°C° 0 mm 4 mps 732 mmHg 79%
    22:00 +10°C° 0 mm 3 mps 732 mmHg 79%
    23:00 +10°C° 0 mm 4 mps 732 mmHg 79%

    16 November, Saturday

    Time Temperature Precipitation Wind Pressure Humidity
    00:00 +10°C° 0 mm 4 mps 732 mmHg 79%
    01:00 +10°C° 0 mm 4 mps 732 mmHg 79%
    02:00 +9°C° 0 mm 5 mps 732 mmHg 79%
    03:00 +9°C° 0 mm 5 mps 732 mmHg 79%
    04:00 +9°C° 0 mm 6 mps 732 mmHg 79%
    05:00 +9°C° 0 mm 6 mps 732 mmHg 79%
    06:00 +9°C° 0 mm 6 mps 732 mmHg 80%
    07:00 +9°C° 0 mm 6 mps 732 mmHg 80%
    08:00 +10°C° 0 mm 6 mps 733 mmHg 78%
    09:00 +11°C° 0 mm 6 mps 733 mmHg 75%
    10:00 +13°C° 0 mm 5 mps 734 mmHg 73%
    11:00 +13°C° 0 mm 5 mps 734 mmHg 73%
    12:00 +13°C° 0 mm 4 mps 735 mmHg 74%
    13:00 +13°C° 0 mm 3 mps 735 mmHg 75%
    14:00 +13°C° 0 mm 3 mps 736 mmHg 77%
    15:00 +13°C° 0 mm 2 mps 736 mmHg 79%
    16:00 +12°C° 0 mm 2 mps 737 mmHg 82%
    17:00 +12°C° 0 mm 1 mps 737 mmHg 84%
    18:00 +11°C° 0 mm 1 mps 738 mmHg 86%
    19:00 +10°C° 0 mm 1 mps 738 mmHg 88%
    20:00 +10°C° 0 mm 1 mps 738 mmHg 89%
    21:00 +10°C° 0 mm 1 mps 739 mmHg 90%
    22:00 +10°C° 0 mm 1 mps 739 mmHg 91%
    23:00 +10°C° 0 mm 1 mps 739 mmHg 92%

    17 November, Sunday

    Time Temperature Precipitation Wind Pressure Humidity
    00:00 +9°C° 0 mm 1 mps 738 mmHg 93%
    01:00 +9°C° 0 mm 1 mps 738 mmHg 94%
    02:00 +8°C° 0 mm 2 mps 738 mmHg 94%
    03:00 +8°C° 0 mm 2 mps 737 mmHg 93%
    04:00 +8°C° 0 mm 2 mps 737 mmHg 93%
    05:00 +8°C° 0 mm 2 mps 737 mmHg 93%
    06:00 +8°C° 0 mm 2 mps 737 mmHg 92%
    07:00 +8°C° 0 mm 2 mps 736 mmHg 91%
    08:00 +10°C° 0 mm 3 mps 736 mmHg 86%
    09:00 +11°C° 0 mm 3 mps 736 mmHg 80%
    10:00 +12°C° 0 mm 3 mps 736 mmHg 74%
    11:00 +13°C° 0 mm 4 mps 736 mmHg 71%
    12:00 +14°C° 0 mm 4 mps 735 mmHg 68%
    13:00 +15°C° 0 mm 4 mps 735 mmHg 65%
    14:00 +14°C° 0 mm 4 mps 735 mmHg 69%
    15:00 +13°C° 0 mm 4 mps 734 mmHg 73%
    16:00 +12°C° 0 mm 4 mps 734 mmHg 78%
    17:00 +11°C° 0 mm 4 mps 734 mmHg 79%
    18:00 +11°C° 0 mm 3 mps 734 mmHg 80%
    19:00 +10°C° 0 mm 3 mps 734 mmHg 81%
    20:00 +10°C° 0 mm 3 mps 734 mmHg 81%
    21:00 +10°C° 0 mm 4 mps 734 mmHg 81%
    22:00 +10°C° 0 mm 4 mps 734 mmHg 81%
    23:00 +10°C° 0 mm 4 mps 733 mmHg 80%
    Show more